Location: Dal�� Lhota
(48.7500°N, 14.0167°E)
Time: 01:03:47
(UTC+00:00)

Cosmos 2082 Rocket - Pass Details

Date: 24 September 2020
Orbit: 834 x 853 km, 71.0° (Epoch: 29 October)

Event Time Altitude Azimuth Distance (km) Brightness Sun altitude
Rises 19:12:41 0° 333° (NNW) 3,393 6.2 -22.5°
Reaches altitude 10° 19:15:11 10° 338° (NNW) 2,456 5.2 -22.9°
Maximum altitude 19:20:43 55° 56° (ENE) 1,008 2.4 -23.7°
Enters shadow 19:21:19 52° 80° (E) 1,036 2.3 -23.8°
